Retour au catalogue

FENGYUN 1C DEB

ActifSSO
NORAD 35102·DEBRIS·🇨🇳 China

Lancé May 10, 1999 depuis Taiyuan Satellite Launch Center

Loading…

Prochains Passages (prochaines 24 heures)

TLE

FraisSource: Space-Track

Époque: Sep 13, 2026, 06:32 UTC

1 35102U 99025DKE 26256.27240667  .00000738  00000-0  29980-3 0  9990
2 35102  98.4777 264.1156 0059587   4.6085 355.5633 14.29485745688345

Suivez FENGYUN 1C DEB en temps réel avec AllMySat

Download on the App Store